TimeMST,TemperatureF,Dew PointF,Humidity,Sea Level PressureIn,VisibilityMPH,Wind Direction,Wind SpeedMPH,Gust SpeedMPH,PrecipitationIn,Events,Conditions,WindDirDegrees,DateUTC
12:56 AM,33.1,25.0,72,30.08,10.0,North,10.4,-,N/A,,Clear,10,2013-11-28 07:56:00
1:56 AM,26.1,23.0,88,30.10,10.0,NW,6.9,-,N/A,,Clear,320,2013-11-28 08:56:00
2:56 AM,27.0,21.9,81,30.09,10.0,Calm,Calm,-,N/A,,Clear,0,2013-11-28 09:56:00
3:56 AM,26.1,21.9,84,30.10,10.0,Calm,Calm,-,N/A,,Clear,0,2013-11-28 10:56:00
4:56 AM,25.0,21.9,88,30.11,10.0,Calm,Calm,-,N/A,,Clear,0,2013-11-28 11:56:00
5:56 AM,26.1,21.0,81,30.14,10.0,Calm,Calm,-,N/A,,Clear,0,2013-11-28 12:56:00
6:56 AM,25.0,21.9,88,30.16,10.0,ESE,3.5,-,N/A,,Clear,110,2013-11-28 13:56:00
7:56 AM,30.0,25.0,82,30.15,10.0,East,3.5,-,N/A,,Clear,80,2013-11-28 14:56:00
8:56 AM,35.1,28.0,76,30.17,10.0,West,3.5,-,N/A,,Clear,280,2013-11-28 15:56:00
9:56 AM,44.1,28.0,53,30.16,10.0,Calm,Calm,-,N/A,,Clear,0,2013-11-28 16:56:00
10:56 AM,48.9,27.0,43,30.14,10.0,WSW,4.6,-,N/A,,Clear,240,2013-11-28 17:56:00
11:56 AM,54.0,27.0,35,30.10,10.0,SW,3.5,-,N/A,,Clear,220,2013-11-28 18:56:00
12:56 PM,60.1,28.9,31,30.05,10.0,ESE,4.6,-,N/A,,Clear,110,2013-11-28 19:56:00
1:56 PM,64.9,32.0,29,30.03,10.0,SSE,11.5,-,N/A,,Clear,160,2013-11-28 20:56:00
2:56 PM,66.0,33.1,29,30.02,10.0,SSE,12.7,-,N/A,,Clear,150,2013-11-28 21:56:00
3:56 PM,66.0,32.0,28,30.03,10.0,SSE,12.7,-,N/A,,Clear,150,2013-11-28 22:56:00
4:56 PM,62.1,33.1,34,30.04,10.0,SE,9.2,-,N/A,,Clear,140,2013-11-28 23:56:00
5:56 PM,54.0,35.1,49,30.07,10.0,East,9.2,-,N/A,,Clear,90,2013-11-29 00:56:00
6:56 PM,55.0,35.1,47,30.10,10.0,ESE,10.4,-,N/A,,Clear,110,2013-11-29 01:56:00
7:56 PM,50.0,35.1,57,30.12,10.0,SE,9.2,-,N/A,,Clear,130,2013-11-29 02:56:00
8:56 PM,46.9,35.1,63,30.12,10.0,SE,5.8,-,N/A,,Clear,140,2013-11-29 03:56:00
9:56 PM,51.1,34.0,52,30.10,10.0,ESE,5.8,-,N/A,,Clear,120,2013-11-29 04:56:00
10:56 PM,48.0,33.1,56,30.10,10.0,SSE,6.9,-,N/A,,Clear,150,2013-11-29 05:56:00
11:56 PM,41.0,33.1,73,30.12,10.0,WNW,4.6,-,N/A,,Clear,290,2013-11-29 06:56:00